Wind_Speed
4 4 3 2 2 2 2 3 3 3 3 4 4 4 4 5 6 6 7 8 8 9 9 11 12 12 13 12 12 13 13 13 13 12 11 11 10 10 10 9 8 8 7
5 4 3 2 2 2 2 2 2 2 3 3 3 4 4 4 4 5 6 6 8 8 9 9 11 12 13 13 13 13 12 13 13 13 12 12 11 11 11 11 10 9 8
6 5 4 3 2 2 2 1 1 2 2 2 3 3 3 3 3 4 5 6 7 8 9 9 10 11 13 13 13 13 13 13 13 14 14 13 13 13 13 12 12 11 10
6 5 4 3 3 2 2 1 1 1 1 1 1 2 2 3 3 3 4 5 6 7 7 7 8 10 11 11 11 13 13 13 13 14 14 15 15 14 14 14 14 13 13
7 6 5 4 3 2 2 2 1 1 0 0 0 1 1 2 2 3 4 4 5 6 7 7 7 8 9 10 10 11 12 12 13 14 14 15 16 16 16 15 15 15 15
7 7 6 5 4 3 2 2 1 1 1 1 0 0 0 1 1 2 3 4 4 5 5 6 7 8 9 9 10 10 11 11 13 14 14 14 15 15 15 16 16 16 16
9 8 7 6 5 4 3 3 2 1 1 1 1 1 0 0 0 0 1 2 3 4 4 5 5 6 7 8 9 9 10 11 12 13 14 14 14 15 15 15 16 17 17
10 9 8 7 6 4 4 3 2 2 1 1 1 1 1 1 1 1 1 1 1 2 3 4 5 5 6 7 8 9 10 10 10 12 13 14 15 15 15 16 16 17 17
11 10 9 8 7 5 4 4 3 2 2 1 0 0 1 1 1 1 1 1 1 1 2 3 4 5 6 6 7 8 9 9 9 9 11 13 14 15 16 16 16 17 17
12 12 10 9 8 7 6 5 5 4 3 2 2 2 2 2 2 2 2 2 2 3 3 3 4 5 6 7 7 8 8 9 9 9 10 11 13 14 15 16 16 17 17
13 13 12 11 9 8 7 6 6 5 5 4 4 4 4 4 4 4 4 4 4 5 5 6 6 6 7 8 8 8 9 10 10 11 11 11 11 12 13 14 15 16 17
13 14 13 12 11 10 9 8 8 8 7 6 6 6 6 6 6 6 6 7 7 7 7 8 8 9 9 10 10 10 11 11 12 12 13 13 13 13 13 14 15 16 17
14 15 15 13 13 12 11 11 10 10 10 9 9 9 9 9 9 9 10 10 10 10 10 11 11 11 12 12 13 13 13 14 14 14 15 15 15 15 15 15 16 17 18
15 16 16 15 15 14 14 13 13 13 13 12 12 12 12 12 12 13 13 13 13 13 14 14 14 15 15 15 15 16 16 16 16 17 17 17 18 18 18 18 18 19 19
16 16 16 17 16 16 16 16 16 16 16 16 16 15 15 16 16 16 16 17 17 17 17 17 18 18 18 19 19 19 19 19 20 20 20 20 21 21 21 21 21 21 22
17 17 18 18 18 19 18 19 19 19 19 19 19 19 19 19 20 20 20 20 20 21 21 21 21 21 22 22 22 23 23 23 23 23 23 24 24 24 24 24 24 24 24
19 19 19 20 20 21 21 21 21 21 22 22 23 23 23 23 23 24 24 24 24 24 25 25 25 26 26 26 26 26 27 27 27 27 27 27 27 27 27 27 28 28 28
20 21 21 22 22 22 23 23 24 24 25 25 26 26 27 27 27 28 28 28 28 29 29 29 30 30 30 30 30 30 31 31 31 30 31 30 30 30 30 31 31 31 31
21 22 23 23 23 23 24 26 26 27 27 28 28 29 30 30 30 31 31 32 32 32 32 33 33 34 34 34 34 34 34 34 34 34 34 34 34 34 34 34 34 34 34
22 23 24 24 25 25 27 27 28 29 30 31 31 32 32 33 33 34 34 35 35 35 36 36 37 37 37 38 38 38 38 38 38 38 38 38 38 38 38 38 38 38 38
22 22 23 24 26 27 29 30 31 31 32 32 33 34 35 35 36 37 37 38 38 38 39 39 39 40 40 40 40 41 41 40 40 41 41 41 42 41 41 41 41 41 41
22 22 24 25 27 28 29 30 32 33 33 33 34 35 36 37 38 38 39 40 40 40 40 41 42 42 42 42 42 43 43 43 43 43 43 43 44 44 44 44 43 43 43
22 23 24 25 26 27 29 30 31 33 34 35 36 37 38 39 40 42 43 43 43 43 43 43 44 43 44 45 45 45 45 46 46 47 47 45 46 47 47 47 46 46 46
23 24 25 27 28 29 30 31 33 35 36 37 38 39 40 41 41 42 43 43 43 43 44 45 46 45 46 47 47 47 47 47 47 47 48 48 48 49 50 49 49 49 49
24 26 27 28 30 31 33 35 36 37 39 39 40 40 41 42 43 43 44 44 45 47 47 47 48 49 49 48 49 49 49 49 49 49 50 51 50 51 52 52 52 52 52
25 27 28 30 32 33 34 35 37 38 39 40 41 42 42 44 44 44 45 46 47 48 48 48 49 50 50 50 51 51 51 51 51 51 52 53 53 53 53 53 53 54 55
Wind_Direction
227 225 224 219 226 230 240 252 257 258 253 248 245 243 246 244 243 239 234 236 235 233 228 224 221 222 222 225 225 225 224 224 226 226 227 229 232 232 233 235 239 241 243
214 214 208 207 210 210 221 237 243 248 251 253 254 251 251 252 248 242 236 236 234 234 232 232 230 227 224 224 226 230 230 228 227 228 229 232 234 234 236 237 240 244 246
207 201 196 195 191 198 211 220 228 237 245 246 255 254 255 257 253 245 242 241 238 236 238 240 233 232 230 229 231 234 236 235 232 232 235 237 238 239 239 239 241 244 247
198 196 193 190 185 186 193 182 179 198 205 232 252 249 249 253 261 252 248 248 246 244 245 245 238 236 237 238 238 238 238 239 238 237 238 240 242 243 243 243 244 246 248
204 201 194 187 182 178 176 158 147 142 148 175 226 233 241 250 258 251 248 249 251 249 246 246 243 238 239 240 241 241 242 244 244 242 242 244 244 245 245 246 247 248 249
208 204 195 188 186 181 173 158 145 131 123 116 103 160 243 247 253 243 238 242 250 252 247 244 241 240 241 241 243 248 250 249 248 244 244 247 246 245 246 248 249 250 250
205 202 196 193 189 186 182 170 153 138 129 109 95 81 57 66 13 264 251 246 251 250 247 245 243 246 241 241 246 251 257 257 252 249 249 249 249 248 248 250 250 251 250
204 201 197 196 194 195 195 187 176 165 158 145 96 47 56 68 59 25 344 296 264 257 258 260 253 251 247 248 249 252 259 261 261 252 252 251 250 251 253 254 253 253 253
207 204 201 202 203 205 204 200 196 196 202 204 184 2 7 19 25 24 360 333 299 287 288 278 269 265 262 260 259 260 263 263 263 259 258 255 253 252 253 254 256 256 256
209 208 208 210 213 215 216 217 219 224 226 231 243 265 291 315 326 334 322 310 302 298 298 296 291 283 280 275 272 270 268 268 267 267 268 265 260 256 256 256 256 257 258
215 215 215 217 221 225 225 227 231 235 237 244 255 262 273 284 292 301 303 301 300 297 293 289 288 286 284 282 281 279 276 276 273 272 273 273 272 266 262 260 261 261 260
222 222 221 223 227 231 232 234 238 241 244 248 257 264 270 276 282 286 291 291 290 291 290 288 286 283 282 282 283 282 281 281 279 277 276 275 274 273 270 265 264 264 264
225 226 227 229 231 234 236 239 243 245 248 253 258 264 269 274 278 282 285 286 286 286 286 286 285 285 283 283 283 283 282 281 280 279 278 277 276 275 273 271 269 267 266
228 229 231 234 237 239 241 244 248 250 252 256 259 263 267 272 275 279 282 285 285 283 283 284 284 283 282 281 281 281 281 280 280 278 278 277 277 276 275 274 273 273 271
231 233 237 238 241 244 246 249 251 253 255 258 260 263 267 270 273 277 279 281 282 282 282 282 282 282 281 280 279 279 279 279 279 278 278 278 277 276 275 275 275 274 274
235 237 241 242 245 248 251 252 254 255 257 259 262 264 267 270 273 275 277 279 280 280 281 280 280 280 279 279 279 279 278 278 278 278 277 277 276 275 275 274 274 273 273
240 243 245 246 248 251 254 256 258 259 260 262 264 267 268 269 272 274 276 278 279 279 279 279 279 278 278 278 278 278 279 278 277 277 276 276 276 275 275 274 273 273 272
247 249 250 250 251 254 257 259 261 262 263 264 266 268 270 271 272 273 274 276 277 278 278 278 278 277 277 277 277 277 277 277 277 276 275 275 275 276 276 275 274 273 272
250 253 253 253 255 258 260 263 264 264 265 266 268 269 270 271 272 272 274 274 276 277 277 277 277 277 276 276 276 276 276 276 277 276 275 275 275 275 275 275 275 274 273
255 257 256 256 258 261 262 264 266 267 267 268 269 270 271 271 272 272 273 273 274 276 276 276 277 277 276 276 275 275 275 276 276 276 276 276 275 274 274 274 274 274 273
257 262 262 262 263 264 264 266 268 270 271 271 271 271 272 272 272 273 273 273 274 275 275 275 275 276 276 276 276 275 274 274 274 275 275 276 275 275 274 274 274 273 272
264 267 268 269 268 269 269 270 271 273 274 273 273 273 274 274 275 276 276 275 274 274 275 275 275 275 275 275 276 275 274 274 274 274 274 274 275 275 275 274 273 272 272
268 269 271 272 273 273 273 274 275 276 276 276 276 277 276 277 277 277 277 277 277 275 274 273 274 275 275 275 274 273 273 274 275 274 273 274 274 274 274 273 273 273 272
272 272 274 275 276 276 277 277 277 277 278 277 277 277 277 278 278 279 278 276 276 276 275 275 274 274 275 275 274 274 273 273 274 274 274 276 275 275 274 274 275 274 274
274 275 276 277 277 278 278 279 279 279 279 279 278 277 277 277 278 280 281 279 278 278 277 277 276 275 275 275 275 275 275 274 274 274 274 275 274 274 274 275 275 275 274
276 277 277 277 278 279 280 282 282 281 280 280 280 279 279 279 280 282 281 280 279 279 279 278 277 277 277 276 276 276 277 277 276 276 275 275 275 275 275 275 276 275 275
Height
5882 5882 5883 5883 5883 5883 5883 5883 5882 5882 5882 5882 5882 5882 5882 5882 5883 5883 5883 5884 5884 5885 5885 5886 5887 5888 5889 5891 5892 5893 5894 5895 5896 5898 5899 5900 5901 5901 5902 5903 5903 5904 5904
5880 5881 5882 5882 5882 5882 5882 5882 5882 5882 5881 5881 5881 5881 5882 5882 5882 5882 5882 5882 5883 5883 5884 5885 5886 5886 5887 5889 5890 5891 5892 5893 5894 5896 5897 5898 5899 5900 5900 5901 5902 5902 5903
5879 5880 5881 5882 5882 5882 5882 5882 5882 5881 5881 5881 5881 5881 5881 5881 5881 5881 5881 5881 5881 5882 5882 5883 5884 5885 5886 5887 5888 5889 5890 5891 5892 5893 5895 5896 5897 5898 5898 5899 5900 5901 5901
5878 5879 5880 5881 5881 5882 5882 5882 5881 5881 5881 5881 5881 5881 5881 5880 5880 5880 5880 5880 5880 5881 5881 5882 5882 5883 5884 5885 5886 5887 5888 5889 5890 5891 5892 5893 5894 5895 5896 5897 5898 5899 5899
5877 5879 5880 5880 5881 5881 5882 5881 5881 5881 5881 5881 5881 5881 5880 5880 5880 5880 5880 5880 5880 5880 5880 5880 5881 5882 5883 5883 5884 5885 5886 5887 5888 5888 5889 5890 5891 5892 5893 5894 5895 5896 5897
5876 5878 5879 5880 5881 5881 5882 5881 5881 5881 5881 5881 5881 5881 5881 5880 5880 5880 5879 5879 5879 5879 5879 5879 5879 5880 5881 5881 5882 5883 5884 5884 5885 5886 5886 5887 5888 5889 5890 5891 5892 5893 5894
5875 5877 5878 5879 5880 5881 5881 5882 5882 5881 5881 5882 5882 5881 5881 5880 5880 5879 5879 5879 5879 5879 5879 5878 5879 5879 5879 5880 5881 5881 5882 5882 5882 5883 5884 5884 5885 5886 5887 5888 5889 5889 5890
5874 5876 5877 5879 5880 5881 5881 5882 5882 5882 5882 5882 5882 5882 5881 5881 5880 5880 5879 5879 5879 5878 5878 5878 5878 5878 5878 5879 5879 5880 5880 5880 5880 5881 5881 5881 5882 5883 5884 5884 5885 5886 5887
5873 5875 5876 5878 5879 5880 5881 5881 5882 5882 5882 5882 5882 5882 5882 5881 5881 5880 5880 5879 5879 5879 5878 5878 5878 5877 5878 5878 5878 5878 5878 5878 5878 5879 5879 5879 5879 5880 5880 5881 5882 5882 5883
5872 5874 5875 5877 5878 5879 5880 5881 5881 5881 5882 5882 5882 5882 5882 5881 5881 5881 5880 5880 5879 5879 5878 5878 5877 5877 5877 5877 5877 5877 5877 5877 5877 5877 5876 5876 5876 5876 5877 5877 5878 5878 5879
5870 5872 5874 5876 5877 5878 5879 5880 5880 5881 5881 5881 5881 5881 5881 5881 5881 5880 5880 5880 5879 5878 5878 5877 5877 5877 5876 5876 5876 5875 5875 5875 5875 5875 5874 5874 5874 5874 5874 5874 5874 5875 5875
5868 5870 5872 5874 5875 5876 5877 5878 5879 5879 5880 5880 5880 5880 5880 5880 5880 5880 5879 5879 5878 5878 5877 5877 5876 5875 5875 5874 5874 5874 5873 5873 5873 5872 5872 5871 5871 5871 5871 5871 5871 5871 5871
5866 5868 5870 5872 5873 5874 5875 5876 5877 5877 5878 5878 5878 5878 5879 5879 5878 5878 5878 5877 5877 5876 5875 5875 5874 5873 5873 5872 5872 5871 5871 5870 5870 5870 5869 5869 5868 5868 5867 5867 5867 5867 5867
5864 5866 5867 5869 5870 5871 5872 5873 5874 5875 5875 5875 5875 5876 5876 5876 5876 5876 5875 5875 5874 5874 5873 5872 5872 5871 5870 5870 5869 5868 5868 5867 5866 5866 5865 5865 5864 5864 5864 5863 5863 5863 5862
5861 5863 5864 5865 5867 5868 5869 5870 5870 5871 5871 5872 5872 5872 5872 5872 5872 5872 5872 5871 5871 5870 5870 5869 5868 5868 5867 5866 5865 5865 5864 5863 5862 5862 5861 5860 5860 5859 5859 5858 5858 5858 5857
5857 5859 5860 5862 5863 5864 5865 5866 5866 5867 5867 5867 5868 5868 5868 5868 5868 5867 5867 5867 5866 5866 5865 5864 5864 5863 5862 5861 5860 5859 5859 5858 5857 5857 5856 5855 5854 5854 5853 5853 5853 5852 5852
5853 5855 5856 5857 5859 5860 5860 5861 5861 5862 5862 5862 5863 5863 5863 5863 5862 5862 5862 5861 5860 5860 5859 5858 5857 5856 5856 5855 5854 5853 5853 5852 5851 5851 5850 5849 5848 5848 5847 5846 5846 5845 5845
5849 5850 5851 5852 5853 5854 5855 5855 5856 5856 5856 5856 5857 5857 5857 5856 5856 5856 5855 5855 5854 5853 5852 5851 5850 5849 5848 5848 5847 5846 5845 5844 5844 5843 5842 5841 5841 5840 5840 5839 5838 5838 5837
5844 5845 5846 5847 5848 5848 5849 5849 5849 5849 5850 5850 5850 5850 5849 5849 5849 5848 5848 5847 5846 5845 5844 5843 5842 5841 5840 5839 5839 5838 5837 5836 5835 5834 5834 5833 5832 5831 5831 5830 5830 5829 5829
5839 5840 5840 5841 5842 5842 5842 5842 5842 5842 5842 5842 5842 5842 5841 5841 5840 5840 5839 5838 5837 5837 5835 5834 5833 5832 5831 5830 5829 5828 5827 5827 5826 5824 5824 5823 5822 5822 5821 5820 5820 5820 5819
5834 5834 5835 5835 5835 5835 5835 5835 5835 5835 5834 5833 5833 5833 5832 5831 5831 5830 5830 5829 5828 5827 5825 5824 5823 5822 5821 5819 5818 5817 5817 5816 5815 5814 5813 5812 5811 5811 5810 5809 5809 5809 5808
5828 5828 5828 5828 5828 5828 5828 5828 5827 5827 5826 5825 5824 5823 5822 5822 5821 5820 5819 5817 5817 5816 5814 5813 5812 5811 5810 5808 5807 5806 5805 5804 5804 5802 5801 5800 5798 5798 5797 5797 5797 5797 5796
5823 5822 5822 5821 5821 5821 5821 5820 5819 5818 5817 5816 5815 5813 5812 5811 5810 5808 5807 5806 5805 5803 5802 5801 5800 5799 5798 5796 5795 5793 5792 5791 5791 5789 5788 5788 5786 5785 5784 5784 5784 5784 5783
5817 5816 5815 5815 5814 5814 5813 5812 5811 5809 5808 5806 5805 5803 5802 5800 5799 5797 5795 5794 5792 5791 5789 5788 5787 5786 5785 5783 5781 5780 5779 5778 5777 5776 5774 5774 5773 5771 5770 5770 5769 5769 5769
5810 5809 5809 5808 5807 5806 5805 5803 5802 5800 5798 5796 5794 5792 5791 5789 5787 5785 5783 5781 5780 5778 5776 5775 5773 5772 5770 5769 5767 5766 5765 5763 5763 5762 5760 5759 5759 5757 5756 5755 5754 5754 5753
5803 5802 5801 5800 5798 5797 5795 5794 5792 5790 5788 5786 5783 5781 5779 5777 5775 5772 5770 5769 5767 5765 5763 5761 5759 5757 5756 5754 5753 5751 5750 5748 5747 5747 5745 5744 5743 5741 5741 5740 5739 5737 5736